This is the latest recevied weather packets stored in our database for station/object HG5PBP-13. If no packets are shown the sender has not sent any weather packets the latest 1 day(s).
| Time | Temp. | Humidity | Pressure | Rain* | Wind** | Luminosity | Snow |
|---|---|---|---|---|---|---|---|
| 1778012659 | 15.56° C | 5% | - | 0 mm | 1.34 m/s, 233° | - | - |
| 1778012359 | 15.56° C | 5% | - | 0 mm | 2.24 m/s, 227° | - | - |
| 1778012060 | 15.56° C | 5% | - | 0 mm | 1.34 m/s, 261° | - | - |
| 1778011759 | 15.56° C | 5% | - | 0 mm | 2.24 m/s, 304° | - | - |
| 1778011459 | 15.56° C | 5% | - | 0 mm | 2.68 m/s, 213° | - | - |
| 1778011159 | 16.11° C | 5% | - | 0 mm | 1.79 m/s, 234° | - | - |
| 1778010859 | 16.11° C | 5% | - | 0 mm | 3.13 m/s, 195° | - | - |
| 1778010559 | 16.11° C | 5% | - | 0 mm | 2.68 m/s, 281° | - | - |
| 1778010259 | 16.11° C | 5% | - | 0 mm | 1.79 m/s, 217° | - | - |
| 1778009959 | 16.67° C | 5% | - | 0 mm | 1.79 m/s, 283° | - | - |
| 1778009659 | 16.67° C | 5% | - | 0 mm | 2.68 m/s, 273° | - | - |
| 1778009359 | 16.67° C | 5% | - | 0 mm | 0.89 m/s, 258° | - | - |
| 1778009059 | 16.67° C | 5% | - | 0 mm | 2.68 m/s, 247° | - | - |
| 1778008759 | 16.67° C | 5% | - | 0 mm | 1.79 m/s, 234° | - | - |
| 1778008459 | 16.67° C | 5% | - | 0 mm | 1.34 m/s, 292° | - | - |
| 1778008159 | 17.22° C | 5% | - | 0 mm | 2.68 m/s, 264° | - | - |
| 1778007859 | 17.22° C | 5% | - | 0 mm | 3.58 m/s, 290° | - | - |
| 1778007559 | 17.22° C | 5% | - | 0 mm | 0.89 m/s, 263° | - | - |
| 1778007259 | 17.78° C | 4% | - | 0 mm | 3.58 m/s, 241° | - | - |
| 1778006959 | 17.78° C | 4% | - | 0 mm | 2.68 m/s, 249° | - | - |
| 1778006659 | 17.78° C | 4% | - | 0 mm | 1.79 m/s, 244° | - | - |
| 1778006359 | 18.33° C | 4% | - | 0 mm | 3.13 m/s, 253° | - | - |
| 1778006060 | 18.33° C | 4% | - | 0 mm | 1.79 m/s, 289° | - | - |
| 1778005759 | 18.33° C | 4% | - | 0 mm | 2.24 m/s, 325° | - | - |
| 1778005458 | 18.89° C | 4% | - | 0 mm | 0.89 m/s, 282° | - | - |
* Rain latest hour (hover to see other rain measurements)
** Current wind speed in m/s (hover to see current wind gust speed)